W3BW-5 Weather Reports


Display with metric or nautical units.
time (UTC)temp
F
wind
direction
speed
MPH
gust
MPH
rain 1hr
in
rain 24hr
in
rain mn
in
humidity
%
barometer
mb
20260505065303 62 245 8.0 12.0 36.63 0.00 0.00 92 1004.8
20260505064309 62 248 8.0 11.0 36.63 0.00 0.00 92 1004.8
20260505063303 62 236 9.0 15.0 36.63 0.00 0.00 92 1004.8
20260505062301 61 246 8.0 11.0 36.63 0.00 0.00 93 1004.9
20260505061303 61 242 8.0 12.0 36.63 0.00 0.00 93 1004.8
20260505060304 61 242 9.0 13.0 36.63 0.00 0.00 94 1004.8
20260505055303 61 245 9.0 13.0 36.63 0.00 0.00 93 1004.8
20260505054306 61 262 8.0 12.0 36.63 0.00 0.00 93 1004.9
20260505052301 61 236 8.0 13.0 36.63 0.00 0.00 92 1004.9
20260505051303 61 222 8.0 13.0 36.63 0.00 0.00 91 1004.8
20260505050304 61 226 7.0 10.0 36.63 0.00 0.00 90 1004.9
20260505041303 61 239 6.0 8.0 36.63 0.00 0.00 88 1004.8
20260505040306 61 245 6.0 8.0 36.63 0.00 0.00 88 1004.8
20260505035301 61 236 7.0 9.0 36.63 0.00 0.00 88 1004.7
20260505034305 62 249 6.0 9.0 36.63 0.00 0.00 87 1004.7
20260505033305 62 170 5.0 10.0 36.63 0.00 0.00 87 1004.7
20260505032304 62 226 5.0 8.0 36.63 0.00 0.00 86 1004.7
20260505031303 62 231 6.0 10.0 36.63 0.00 0.00 85 1004.6
20260505030302 62 200 5.0 8.0 36.63 0.00 0.00 85 1004.6
20260505025304 62 221 7.0 12.0 36.63 0.00 0.00 83 1004.6
20260505024304 63 219 7.0 13.0 36.63 0.00 0.00 83 1004.7
20260505023303 63 226 8.0 12.0 36.63 0.00 0.00 81 1004.8
20260505022308 62 225 8.0 12.0 36.63 0.00 0.00 81 1004.7
20260505021308 62 198 7.0 12.0 36.63 0.00 0.00 80 1004.7
20260505015303 63 231 5.0 8.0 36.63 0.00 0.00 77 1004.4
20260505014305 63 224 4.0 7.0 36.63 0.00 0.00 75 1004.5
20260505013302 63 203 4.0 7.0 36.63 0.00 0.00 73 1004.4
20260505012301 63 198 4.0 6.0 36.63 0.00 0.00 72 1004.3
20260505011301 63 224 5.0 7.0 36.63 0.00 0.00 71 1004.3
20260505010304 64 246 4.0 8.0 36.63 0.00 0.00 70 1004.2
20260505005304 64 204 4.0 6.0 36.63 0.00 0.00 69 1004.1
20260505004301 65 233 4.0 7.0 36.63 0.00 0.00 68 1004.0
20260505003302 65 210 3.0 6.0 36.63 0.00 0.00 68 1003.9
20260505002301 65 184 4.0 8.0 36.63 0.00 0.00 67 1003.8
20260505001301 65 222 4.0 7.0 36.63 0.00 0.00 66 1003.9
20260505000301 66 225 6.0 10.0 36.63 0.00 0.00 65 1003.9
20260504235301 67 253 6.0 9.0 36.63 0.00 0.00 65 1003.9
20260504234304 67 222 7.0 13.0 36.63 0.00 0.00 64 1003.8
20260504233303 68 229 7.0 11.0 36.63 0.00 0.00 63 1003.8
20260504232304 68 198 9.0 13.0 36.63 0.00 0.00 61 1003.7
20260504231301 69 232 9.0 17.0 36.63 0.00 0.00 60 1003.6
20260504230307 69 221 8.0 15.0 36.63 0.00 0.00 60 1003.6
20260504225304 70 246 12.0 17.0 36.63 0.00 0.00 56 1003.5
20260504224303 70 260 12.0 18.0 36.63 0.00 0.00 57 1003.4
20260504223303 71 239 10.0 15.0 36.63 0.00 0.00 57 1003.4
20260504222304 70 252 12.0 17.0 36.63 0.00 0.00 60 1003.4
20260504221301 69 252 11.0 20.0 36.63 0.00 0.00 58 1003.5
20260504220311 69 245 10.0 16.0 36.63 0.00 0.00 59 1003.5
20260504215302 67 249 9.0 13.0 36.63 0.00 0.00 59 1003.6
20260504214306 68 245 12.0 21.0 36.63 0.00 0.00 59 1003.7
20260504213304 68 252 11.0 14.0 36.63 0.00 0.00 60 1003.8
20260504212304 68 257 10.0 17.0 36.63 0.00 0.00 60 1003.7
20260504211301 68 262 11.0 18.0 36.63 0.00 0.00 59 1003.8
20260504210306 68 277 12.0 17.0 36.63 0.00 0.00 59 1003.8
20260504205301 67 259 12.0 17.0 36.63 0.00 0.00 60 1003.9
20260504204304 67 269 12.0 17.0 36.63 0.00 0.00 60 1003.8
20260504203307 67 240 13.0 20.0 36.63 0.00 0.00 59 1004.1
20260504202307 67 250 12.0 19.0 36.63 0.00 0.00 60 1004.4
20260504201302 67 281 13.0 20.0 36.63 0.00 0.00 60 1004.4
20260504200306 68 283 13.0 16.0 36.63 0.00 0.00 59 1004.6
20260504195304 67 274 14.0 22.0 36.63 0.00 0.00 60 1004.8
20260504194303 67 253 13.0 18.0 36.63 0.00 0.00 60 1005.0
20260504193303 67 256 10.0 14.0 36.63 0.00 0.00 58 1005.1
20260504192304 67 246 12.0 16.0 36.63 0.00 0.00 62 1005.3
20260504191301 66 277 11.0 18.0 36.63 0.00 0.00 60 1005.2
20260504190307 67 255 13.0 19.0 36.63 0.00 0.00 61 1005.5
20260504185301 67 253 9.0 16.0 36.63 0.00 0.00 62 1005.5
20260504184303 66 222 9.0 17.0 36.63 0.00 0.00 61 1005.7
20260504183303 67 259 10.0 15.0 36.63 0.00 0.00 59 1005.8
20260504182304 67 255 10.0 14.0 36.63 0.00 0.00 60 1005.9
20260504181305 67 260 11.0 17.0 36.63 0.00 0.00 60 1006.2
20260504180305 66 239 9.0 14.0 36.63 0.00 0.00 62 1006.3
20260504175304 65 259 10.0 15.0 36.63 0.00 0.00 61 1006.5
20260504174304 66 274 10.0 13.0 36.63 0.00 0.00 60 1006.3
20260504173303 66 263 9.0 16.0 36.63 0.00 0.00 60 1006.5
20260504172312 67 240 9.0 14.0 36.63 0.00 0.00 63 1006.7
20260504171309 65 239 9.0 14.0 36.63 0.00 0.00 60 1006.9
20260504170309 65 281 9.0 18.0 36.63 0.00 0.00 60 1007.0
20260504160306 64 249 9.0 13.0 36.63 0.00 0.00 66 1008.0
20260504150311 61 264 9.0 12.0 36.63 0.00 0.00 74 1008.6
20260504141301 58 248 11.0 17.0 36.63 0.00 0.00 78 1008.9
20260504140307 57 273 11.0 14.0 36.63 0.00 0.00 78 1009.0
20260504130311 56 249 13.0 19.0 36.63 0.00 0.00 83 1009.3
20260504110313 50 257 1.0 4.0 36.63 0.00 0.00 100 1010.1
20260504081301 49 238 4.0 6.0 36.63 0.00 0.00 97 1010.4
20260504080314 49 243 4.0 6.0 36.63 0.00 0.00 97 1010.3
20260504070303 48 195 3.0 4.0 36.63 0.00 0.00 96 1010.5